sat.trackr.live / text

‹ back to catalog

TIANQI-32

NORAD 61198 · 2024-170D

PAYLOAD ACTIVE UNKNOWN

§ Identity

Operator
Country
PRC
Launch date
2024-09-20
Launch site
XICLF
Launch vehicle
Mass (kg)
RCS (m²)

External: N2YO · Heavens-Above · Gunter

§ Orbital elements

Epoch: 2026-09-22T20:59:59.391744Z

Period
103.02 min
Inclination
44.8606°
Eccentricity
0.0008149
Mean motion
13.97721028 rev/d
Perigee alt
895.8 km
Apogee alt
907.6 km
Semi-major
7,279.8 km
B*
6.7615e-5
RAAN
62.8470°
Arg perigee
177.1679°
Mean anomaly
182.9199°
Rev number
9,820

§ Raw data

TIANQI-321 61198U 24170D   26265.87499296 -.00000031  00000+0  67615-4 0  99972 61198  44.8606  62.8470 0008149 177.1679 182.9199 13.97721028 98200

JSON: /api/v1/satellites/61198 · /tle

For live sub-satellite position, see the globe view (requires WebGL).

§ Visibility from observer

Set your observer location to see the next 7 days of passes ≥ 10°. The values pass through the URL so the page stays shareable.

No JS? Fill the form by hand. The geolocation button needs JavaScript.